Time,TemperatureF,DewpointF,PressureIn,WindDirection,WindDirectionDegrees,WindSpeedMPH,WindSpeedGustMPH,Humidity,HourlyPrecipIn,Conditions,Clouds,dailyrainin,SoftwareType,DateUTC
2013-04-13 00:03:00,38.0,33.0,-100.00,SSW,195,7.0,15.0,80,0.00,,,-99.99,,2013-04-13 04:03:00,
2013-04-13 00:12:00,38.0,33.0,-100.00,SW,215,6.0,14.0,81,0.00,,,-99.99,,2013-04-13 04:12:00,
2013-04-13 00:23:00,38.0,33.0,-100.00,SSW,200,11.0,19.0,83,0.00,,,-99.99,,2013-04-13 04:23:00,
2013-04-13 00:33:00,37.0,33.0,-100.00,WSW,240,10.0,16.0,85,0.00,,,-99.99,,2013-04-13 04:33:00,
2013-04-13 00:42:00,38.0,33.0,-100.00,SW,220,7.0,18.0,84,0.00,,,-99.99,,2013-04-13 04:42:00,
2013-04-13 00:53:00,38.0,33.0,-100.00,SW,220,7.0,16.0,84,0.00,,,-99.99,,2013-04-13 04:53:00,
2013-04-13 01:03:00,38.0,33.0,-100.00,SW,230,7.0,14.0,84,0.00,,,-99.99,,2013-04-13 05:03:00,
2013-04-13 01:12:00,38.0,33.0,-100.00,SSW,210,7.0,16.0,81,0.00,,,-99.99,,2013-04-13 05:12:00,
2013-04-13 01:22:00,38.0,33.0,-100.00,SSW,205,7.0,16.0,82,0.00,,,-99.99,,2013-04-13 05:22:00,
2013-04-13 01:32:00,38.0,34.0,-100.00,SW,215,6.0,12.0,84,0.00,,,-99.99,,2013-04-13 05:32:00,
2013-04-13 01:43:00,38.0,34.0,-100.00,SSW,205,6.0,9.0,84,0.00,,,-99.99,,2013-04-13 05:43:00,
2013-04-13 01:52:00,38.0,33.0,-100.00,SSW,200,8.0,14.0,81,0.00,,,-99.99,,2013-04-13 05:52:00,
2013-04-13 02:02:00,38.0,32.0,-100.00,SSW,210,9.0,16.0,79,0.00,,,-99.99,,2013-04-13 06:02:00,
2013-04-13 02:12:00,38.0,32.0,-100.00,SSW,200,7.0,17.0,78,0.00,,,-99.99,,2013-04-13 06:12:00,
2013-04-13 02:24:00,38.0,32.0,-100.00,SSW,205,9.0,17.0,77,0.00,,,-99.99,,2013-04-13 06:24:00,
2013-04-13 02:35:00,38.0,31.0,-100.00,SSW,205,8.0,16.0,76,0.00,,,-99.99,,2013-04-13 06:35:00,
2013-04-13 02:47:00,38.0,31.0,-100.00,SSW,200,10.0,17.0,75,0.00,,,-99.99,,2013-04-13 06:47:00,
2013-04-13 02:53:00,38.0,31.0,-100.00,SSW,200,7.0,14.0,75,0.00,,,-99.99,,2013-04-13 06:53:00,
2013-04-13 03:15:00,38.0,31.0,-100.00,SW,215,11.0,16.0,74,0.00,,,-99.99,,2013-04-13 07:15:00,
2013-04-13 03:24:00,38.0,31.0,-100.00,SW,220,7.0,16.0,74,0.00,,,-99.99,,2013-04-13 07:24:00,
2013-04-13 03:35:00,38.0,31.0,-100.00,SSW,205,8.0,13.0,75,0.00,,,-99.99,,2013-04-13 07:35:00,
2013-04-13 03:45:00,38.0,31.0,-100.00,SW,215,7.0,16.0,76,0.00,,,-99.99,,2013-04-13 07:45:00,
2013-04-13 03:54:00,37.0,31.0,-100.00,WSW,240,6.0,12.0,78,0.00,,,-99.99,,2013-04-13 07:54:00,
2013-04-13 04:06:00,37.0,32.0,-100.00,SW,230,7.0,12.0,80,0.00,,,-99.99,,2013-04-13 08:06:00,
2013-04-13 04:15:00,37.0,32.0,-100.00,WSW,240,4.0,9.0,82,0.00,,,-99.99,,2013-04-13 08:15:00,
2013-04-13 04:25:00,37.0,32.0,-100.00,WSW,240,6.0,8.0,83,0.00,,,-99.99,,2013-04-13 08:25:00,
2013-04-13 04:35:00,37.0,32.0,-100.00,SW,235,5.0,9.0,83,0.00,,,-99.99,,2013-04-13 08:35:00,
2013-04-13 04:45:00,36.0,32.0,-100.00,WSW,240,7.0,12.0,84,0.00,,,-99.99,,2013-04-13 08:45:00,
2013-04-13 04:53:00,36.0,32.0,-100.00,WSW,245,9.0,14.0,86,0.00,,,-99.99,,2013-04-13 08:53:00,
2013-04-13 05:05:00,36.0,32.0,-100.00,WSW,255,5.0,12.0,88,0.00,,,-99.99,,2013-04-13 09:05:00,
2013-04-13 05:14:00,35.0,33.0,-100.00,WSW,250,6.0,9.0,88,0.00,,,-99.99,,2013-04-13 09:14:00,
2013-04-13 05:24:00,35.0,32.0,-100.00,WSW,250,6.0,9.0,89,0.00,,,-99.99,,2013-04-13 09:24:00,
2013-04-13 05:37:00,35.0,33.0,-100.00,SW,225,6.0,7.0,89,0.00,,,-99.99,,2013-04-13 09:37:00,
2013-04-13 05:54:00,35.0,33.0,-100.00,WSW,255,5.0,9.0,90,0.00,,,-99.99,,2013-04-13 09:54:00,
2013-04-13 06:05:00,35.0,33.0,-100.00,WSW,245,5.0,14.0,90,0.00,,,-99.99,,2013-04-13 10:05:00,
2013-04-13 06:15:00,35.0,33.0,-100.00,SSW,205,6.0,10.0,89,0.00,,,-99.99,,2013-04-13 10:15:00,
2013-04-13 06:24:00,36.0,32.0,-100.00,SSW,205,7.0,12.0,87,0.00,,,-99.99,,2013-04-13 10:24:00,
2013-04-13 06:37:00,36.0,32.0,-100.00,SSW,205,5.0,10.0,86,0.00,,,-99.99,,2013-04-13 10:37:00,
2013-04-13 06:46:00,36.0,32.0,-100.00,South,190,6.0,12.0,86,0.00,,,-99.99,,2013-04-13 10:46:00,
2013-04-13 06:53:00,36.0,32.0,-100.00,SSW,210,6.0,9.0,86,0.00,,,-99.99,,2013-04-13 10:53:00,
2013-04-13 07:07:00,36.0,32.0,-100.00,SW,215,6.0,11.0,86,0.00,,,-99.99,,2013-04-13 11:07:00,
2013-04-13 07:13:00,36.0,33.0,-100.00,SSW,200,6.0,12.0,85,0.00,,,-99.99,,2013-04-13 11:13:00,
2013-04-13 07:24:00,36.0,33.0,-100.00,SSW,200,7.0,12.0,86,0.00,,,-99.99,,2013-04-13 11:24:00,
2013-04-13 07:34:00,37.0,33.0,-100.00,SSW,200,9.0,14.0,85,0.00,,,-99.99,,2013-04-13 11:34:00,
2013-04-13 07:44:00,37.0,33.0,-100.00,South,190,8.0,13.0,85,0.00,,,-99.99,,2013-04-13 11:44:00,
2013-04-13 07:53:00,37.0,33.0,-100.00,SSW,210,7.0,15.0,84,0.00,,,-99.99,,2013-04-13 11:53:00,
2013-04-13 08:08:00,37.0,33.0,-100.00,SSW,210,7.0,15.0,84,0.00,,,-99.99,,2013-04-13 12:08:00,
2013-04-13 08:15:00,37.0,33.0,-100.00,SSW,205,9.0,16.0,82,0.00,,,-99.99,,2013-04-13 12:15:00,
2013-04-13 08:25:00,38.0,33.0,-100.00,SSW,210,6.0,14.0,81,0.00,,,-99.99,,2013-04-13 12:25:00,
2013-04-13 08:36:00,38.0,32.0,-100.00,SSW,200,11.0,18.0,80,0.00,,,-99.99,,2013-04-13 12:36:00,
2013-04-13 08:47:00,38.0,32.0,-100.00,SSW,200,9.0,19.0,80,0.00,,,-99.99,,2013-04-13 12:47:00,
2013-04-13 08:54:00,38.0,32.0,-100.00,SSW,200,9.0,19.0,80,0.00,,,-99.99,,2013-04-13 12:54:00,
2013-04-13 09:15:00,38.0,32.0,-100.00,South,190,10.0,17.0,79,0.00,,,-99.99,,2013-04-13 13:15:00,
2013-04-13 09:35:00,38.0,32.0,-100.00,SSW,195,11.0,20.0,78,0.00,,,-99.99,,2013-04-13 13:35:00,
2013-04-13 09:47:00,39.0,33.0,-100.00,South,185,9.0,21.0,78,0.00,,,-99.99,,2013-04-13 13:47:00,
2013-04-13 09:54:00,39.0,33.0,-100.00,SSW,205,10.0,21.0,78,0.00,,,-99.99,,2013-04-13 13:54:00,
2013-04-13 10:05:00,39.0,33.0,-100.00,SSW,205,8.0,22.0,77,0.00,,,-99.99,,2013-04-13 14:05:00,
2013-04-13 10:14:00,39.0,32.0,-100.00,SSW,205,9.0,18.0,75,0.00,,,-99.99,,2013-04-13 14:14:00,
2013-04-13 10:23:00,39.0,32.0,-100.00,South,180,9.0,21.0,75,0.00,,,-99.99,,2013-04-13 14:23:00,
2013-04-13 10:39:00,39.0,32.0,-100.00,SW,220,8.0,19.0,76,0.00,,,-99.99,,2013-04-13 14:39:00,
2013-04-13 10:46:00,39.0,31.0,-100.00,South,190,12.0,17.0,74,0.00,,,-99.99,,2013-04-13 14:46:00,
2013-04-13 10:55:00,39.0,32.0,-100.00,SSW,210,11.0,17.0,76,0.00,,,-99.99,,2013-04-13 14:55:00,
2013-04-13 11:05:00,38.0,32.0,-100.00,SSW,200,11.0,19.0,77,0.00,,,-99.99,,2013-04-13 15:05:00,
2013-04-13 11:14:00,38.0,32.0,-100.00,SSW,200,9.0,18.0,79,0.00,,,-99.99,,2013-04-13 15:14:00,
2013-04-13 11:29:00,38.0,33.0,-100.00,SSW,210,11.0,19.0,79,0.55,,,-99.99,,2013-04-13 15:29:00,
2013-04-13 11:37:00,38.0,33.0,-100.00,SSW,200,11.0,19.0,79,0.00,,,-99.99,,2013-04-13 15:37:00,
2013-04-13 11:44:00,39.0,32.0,-100.00,SSW,195,8.0,16.0,77,0.00,,,-99.99,,2013-04-13 15:44:00,
2013-04-13 11:55:00,40.0,31.0,-100.00,SSW,205,12.0,18.0,72,0.00,,,-99.99,,2013-04-13 15:55:00,
2013-04-13 12:07:00,40.0,30.0,-100.00,SSW,195,9.0,19.0,68,0.00,,,-99.99,,2013-04-13 16:07:00,
2013-04-13 12:15:00,40.0,31.0,-100.00,SSW,210,10.0,19.0,70,0.00,,,-99.99,,2013-04-13 16:15:00,
2013-04-13 12:24:00,39.0,31.0,-100.00,South,180,14.0,21.0,71,0.00,,,-99.99,,2013-04-13 16:24:00,
2013-04-13 12:36:00,40.0,31.0,-100.00,SSW,205,11.0,21.0,69,0.00,,,-99.99,,2013-04-13 16:36:00,
2013-04-13 12:45:00,40.0,29.0,-100.00,SSW,205,15.0,22.0,65,0.00,,,-99.99,,2013-04-13 16:45:00,
2013-04-13 12:54:00,40.0,30.0,-100.00,SSW,205,14.0,22.0,66,0.00,,,-99.99,,2013-04-13 16:54:00,
2013-04-13 13:08:00,40.0,30.0,-100.00,SW,220,12.0,22.0,66,0.00,,,-99.99,,2013-04-13 17:08:00,
2013-04-13 13:20:00,41.0,29.0,-100.00,SW,230,12.0,22.0,63,0.00,,,-99.99,,2013-04-13 17:20:00,
2013-04-13 13:38:00,41.0,29.0,-100.00,SW,215,15.0,22.0,61,0.00,,,-99.99,,2013-04-13 17:38:00,
2013-04-13 13:44:00,41.0,29.0,-100.00,SSW,200,12.0,25.0,60,0.00,,,-99.99,,2013-04-13 17:44:00,
2013-04-13 14:07:00,42.0,30.0,-100.00,WSW,250,11.0,17.0,62,0.00,,,-99.99,,2013-04-13 18:07:00,
2013-04-13 14:15:00,43.0,31.0,-100.00,SW,225,7.0,16.0,61,0.00,,,-99.99,,2013-04-13 18:15:00,
2013-04-13 14:24:00,42.0,30.0,-100.00,SSW,210,14.0,25.0,62,0.00,,,-99.99,,2013-04-13 18:24:00,
2013-04-13 14:33:00,42.0,30.0,-100.00,SSW,210,14.0,21.0,63,0.00,,,-99.99,,2013-04-13 18:33:00,
2013-04-13 14:42:00,42.0,30.0,-100.00,SSW,205,12.0,22.0,63,0.00,,,-99.99,,2013-04-13 18:42:00,
2013-04-13 14:52:00,42.0,30.0,-100.00,SSW,210,12.0,20.0,63,0.00,,,-99.99,,2013-04-13 18:52:00,
2013-04-13 15:03:00,42.0,31.0,-100.00,SSW,200,10.0,18.0,63,0.00,,,-99.99,,2013-04-13 19:03:00,
2013-04-13 15:12:00,44.0,31.0,-100.00,SSW,210,11.0,21.0,61,0.00,,,-99.99,,2013-04-13 19:12:00,
2013-04-13 15:22:00,43.0,31.0,-100.00,SSW,210,13.0,26.0,61,0.00,,,-99.99,,2013-04-13 19:22:00,
2013-04-13 15:32:00,43.0,31.0,-100.00,SSW,200,14.0,21.0,62,0.00,,,-99.99,,2013-04-13 19:32:00,
2013-04-13 15:42:00,43.0,31.0,-100.00,SSW,200,14.0,21.0,62,0.00,,,-99.99,,2013-04-13 19:42:00,
2013-04-13 15:52:00,43.0,31.0,-100.00,SSW,200,14.0,21.0,62,0.00,,,-99.99,,2013-04-13 19:52:00,
2013-04-13 16:02:00,43.0,32.0,-100.00,SW,220,13.0,20.0,63,0.00,,,-99.99,,2013-04-13 20:02:00,
2013-04-13 16:12:00,43.0,32.0,-100.00,SW,215,11.0,17.0,63,0.00,,,-99.99,,2013-04-13 20:12:00,
2013-04-13 16:22:00,44.0,31.0,-100.00,SW,235,12.0,22.0,62,0.00,,,-99.99,,2013-04-13 20:22:00,
2013-04-13 16:32:00,42.0,33.0,-100.00,West,265,16.0,21.0,69,0.00,,,-99.99,,2013-04-13 20:32:00,
2013-04-13 16:42:00,42.0,34.0,-100.00,WSW,245,14.0,21.0,71,0.00,,,-99.99,,2013-04-13 20:42:00,
2013-04-13 16:52:00,43.0,35.0,-100.00,WSW,245,13.0,22.0,72,0.00,,,-99.99,,2013-04-13 20:52:00,
2013-04-13 17:02:00,42.0,34.0,-100.00,WSW,240,14.0,22.0,72,0.00,,,-99.99,,2013-04-13 21:02:00,
2013-04-13 17:12:00,42.0,33.0,-100.00,WSW,255,12.0,23.0,70,0.00,,,-99.99,,2013-04-13 21:12:00,
2013-04-13 17:22:00,41.0,33.0,-100.00,WSW,250,18.0,25.0,72,0.00,,,-99.99,,2013-04-13 21:22:00,
2013-04-13 17:33:00,42.0,33.0,-100.00,WSW,255,14.0,27.0,71,0.00,,,-99.99,,2013-04-13 21:33:00,
2013-04-13 17:43:00,42.0,33.0,-100.00,WSW,245,12.0,20.0,71,0.00,,,-99.99,,2013-04-13 21:43:00,
2013-04-13 17:52:00,41.0,33.0,-100.00,SW,235,12.0,22.0,70,0.00,,,-99.99,,2013-04-13 21:52:00,
2013-04-13 18:03:00,41.0,32.0,-100.00,WSW,255,14.0,22.0,69,0.00,,,-99.99,,2013-04-13 22:03:00,
2013-04-13 18:12:00,42.0,32.0,-100.00,West,260,15.0,21.0,68,0.00,,,-99.99,,2013-04-13 22:12:00,
2013-04-13 18:22:00,42.0,32.0,-100.00,SW,225,14.0,22.0,66,0.00,,,-99.99,,2013-04-13 22:22:00,
2013-04-13 18:33:00,42.0,32.0,-100.00,West,270,14.0,21.0,65,0.00,,,-99.99,,2013-04-13 22:33:00,
2013-04-13 18:42:00,42.0,31.0,-100.00,WSW,240,16.0,23.0,64,0.00,,,-99.99,,2013-04-13 22:42:00,
2013-04-13 18:52:00,43.0,31.0,-100.00,SW,235,11.0,25.0,61,0.00,,,-99.99,,2013-04-13 22:52:00,
2013-04-13 19:02:00,42.0,29.0,-100.00,WSW,250,16.0,22.0,60,0.00,,,-99.99,,2013-04-13 23:02:00,
2013-04-13 19:12:00,42.0,30.0,-100.00,WSW,240,17.0,25.0,62,0.00,,,-99.99,,2013-04-13 23:12:00,
2013-04-13 19:22:00,42.0,30.0,-100.00,WSW,245,12.0,19.0,63,0.00,,,-99.99,,2013-04-13 23:22:00,
2013-04-13 19:33:00,42.0,30.0,-100.00,WSW,245,9.0,21.0,63,0.00,,,-99.99,,2013-04-13 23:33:00,
2013-04-13 19:42:00,41.0,30.0,-100.00,WSW,245,11.0,21.0,64,0.00,,,-99.99,,2013-04-13 23:42:00,
2013-04-13 19:52:00,41.0,30.0,-100.00,WSW,255,11.0,17.0,65,0.00,,,-99.99,,2013-04-13 23:52:00,
2013-04-13 20:03:00,41.0,30.0,-100.00,WSW,240,12.0,21.0,64,0.00,,,-99.99,,2013-04-14 00:03:00,
2013-04-13 20:12:00,40.0,29.0,-100.00,WSW,255,9.0,16.0,64,0.00,,,-99.99,,2013-04-14 00:12:00,
2013-04-13 20:22:00,40.0,29.0,-100.00,WSW,250,11.0,18.0,64,0.00,,,-99.99,,2013-04-14 00:22:00,
2013-04-13 20:32:00,39.0,29.0,-100.00,WSW,255,10.0,14.0,65,0.00,,,-99.99,,2013-04-14 00:32:00,
2013-04-13 20:42:00,39.0,29.0,-100.00,WSW,240,7.0,12.0,66,0.00,,,-99.99,,2013-04-14 00:42:00,
2013-04-13 20:52:00,39.0,29.0,-100.00,WSW,255,9.0,12.0,67,0.00,,,-99.99,,2013-04-14 00:52:00,
2013-04-13 21:02:00,38.0,29.0,-100.00,WSW,240,6.0,12.0,68,0.00,,,-99.99,,2013-04-14 01:02:00,
2013-04-13 21:12:00,38.0,29.0,-100.00,WSW,240,7.0,9.0,68,0.00,,,-99.99,,2013-04-14 01:12:00,
2013-04-13 21:22:00,38.0,29.0,-100.00,WSW,255,6.0,9.0,69,0.00,,,-99.99,,2013-04-14 01:22:00,
2013-04-13 21:32:00,38.0,28.0,-100.00,WSW,255,5.0,9.0,69,0.00,,,-99.99,,2013-04-14 01:32:00,
2013-04-13 21:42:00,38.0,29.0,-100.00,WSW,240,4.0,7.0,69,0.00,,,-99.99,,2013-04-14 01:42:00,
2013-04-13 21:52:00,37.0,28.0,-100.00,WSW,250,4.0,9.0,69,0.00,,,-99.99,,2013-04-14 01:52:00,
2013-04-13 22:02:00,37.0,28.0,-100.00,WSW,240,4.0,8.0,70,0.00,,,-99.99,,2013-04-14 02:02:00,
2013-04-13 22:12:00,37.0,29.0,-100.00,WSW,240,3.0,6.0,71,0.00,,,-99.99,,2013-04-14 02:12:00,
2013-04-13 22:22:00,37.0,29.0,-100.00,WSW,250,4.0,7.0,71,0.00,,,-99.99,,2013-04-14 02:22:00,
2013-04-13 22:32:00,37.0,29.0,-100.00,WSW,250,3.0,5.0,72,0.00,,,-99.99,,2013-04-14 02:32:00,
2013-04-13 22:42:00,37.0,28.0,-100.00,SW,230,2.0,6.0,71,0.00,,,-99.99,,2013-04-14 02:42:00,
2013-04-13 22:52:00,37.0,28.0,-100.00,WSW,245,3.0,4.0,71,0.00,,,-99.99,,2013-04-14 02:52:00,
2013-04-13 23:03:00,37.0,28.0,-100.00,WSW,255,3.0,6.0,71,0.00,,,-99.99,,2013-04-14 03:03:00,
2013-04-13 23:12:00,37.0,28.0,-100.00,SW,230,2.0,5.0,71,0.00,,,-99.99,,2013-04-14 03:12:00,
2013-04-13 23:22:00,37.0,28.0,-100.00,WSW,240,2.0,6.0,71,0.00,,,-99.99,,2013-04-14 03:22:00,
2013-04-13 23:33:00,37.0,28.0,-100.00,SW,235,1.0,5.0,71,0.00,,,-99.99,,2013-04-14 03:33:00,
2013-04-13 23:42:00,37.0,28.0,-100.00,SW,225,2.0,6.0,70,0.00,,,-99.99,,2013-04-14 03:42:00,
2013-04-13 23:53:00,37.0,28.0,-100.00,WSW,240,1.0,5.0,70,0.00,,,-99.99,,2013-04-14 03:53:00,